This is the latest recevied weather packets stored in our database for station/object G0TGD-10. If no packets are shown the sender has not sent any weather packets the latest 10 day(s).
| Time | Temp. | Humidity | Pressure | Rain* | Wind** | Luminosity | Snow |
|---|---|---|---|---|---|---|---|
| 1777450822 | 17.22° C | 55% | 1027.8 hPa | - | - | - | - |
| 1777449922 | 17.22° C | 58% | 1027.8 hPa | - | - | - | - |
| 1777449021 | 16.67° C | 60% | 1027.8 hPa | - | - | - | - |
| 1777448121 | 13.89° C | 63% | 1028 hPa | - | - | - | - |
| 1777447221 | 11.67° C | 66% | 1028 hPa | - | - | - | - |
| 1777446321 | 8.89° C | 64% | 1028 hPa | - | - | - | - |
| 1777445421 | 7.78° C | 64% | 1028 hPa | - | - | - | - |
| 1777444521 | 7.22° C | 64% | 1027.9 hPa | - | - | - | - |
| 1777443621 | 6.67° C | 65% | 1027.9 hPa | - | - | - | - |
| 1777442721 | 6.11° C | 65% | 1027.9 hPa | - | - | - | - |
| 1777441821 | 5.56° C | 65% | 1027.8 hPa | - | - | - | - |
| 1777440921 | 5° C | 65% | 1027.8 hPa | - | - | - | - |
| 1777440021 | 4.44° C | 65% | 1027.6 hPa | - | - | - | - |
| 1777439121 | 4.44° C | 65% | 1027.6 hPa | - | - | - | - |
| 1777438220 | 3.89° C | 65% | 1027.8 hPa | - | - | - | - |
| 1777437320 | 3.89° C | 65% | 1027.9 hPa | - | - | - | - |
| 1777436420 | 3.89° C | 64% | 1027.8 hPa | - | - | - | - |
| 1777435520 | 3.89° C | 64% | 1027.8 hPa | - | - | - | - |
| 1777434620 | 3.89° C | 64% | 1028 hPa | - | - | - | - |
| 1777433720 | 3.89° C | 64% | 1027.9 hPa | - | - | - | - |
| 1777432820 | 4.44° C | 64% | 1028 hPa | - | - | - | - |
| 1777431920 | 4.44° C | 64% | 1028.1 hPa | - | - | - | - |
| 1777431020 | 4.44° C | 64% | 1028 hPa | - | - | - | - |
| 1777430120 | 4.44° C | 63% | 1028 hPa | - | - | - | - |
| 1777429220 | 4.44° C | 63% | 1028.1 hPa | - | - | - | - |
* Rain since midnight (hover to see other rain measurements)
** Current wind speed in m/s (hover to see current wind gust speed)